KLM957 EHAM-EGNT

Flight info

Callsign KLM957
Flight time 0h 56m
Altitude 32000
Route BERGI L602 NALAX L46 RIMTO
Aircraft B738/M-SDE2E3FGHIRWXY/LB1

Departure

Time 2026-04-30 09:45
Airport Amsterdam Airport Schiphol (EHAM)

Arrival

Time 2026-04-30 10:41
Airport Newcastle International Airport (EGNT)
Time Latitude Longitude Altitude Speed Heading
2026-04-30 09:23 52.30711 4.77156 -2 ft 0 kts
2026-04-30 09:33 52.30710 4.77156 -2 ft 1 kts
2026-04-30 09:33 52.30693 4.77155 -2 ft 3 kts 359°
2026-04-30 09:33 52.30674 4.77158 -2 ft 3 kts 341°
2026-04-30 09:33 52.30659 4.77171 -2 ft 2 kts 307°
2026-04-30 09:34 52.30656 4.77177 -2 ft 1 kts 303°
2026-04-30 09:36 52.30657 4.77170 -2 ft 1 kts 284°
2026-04-30 09:36 52.30654 4.77139 -2 ft 5 kts 260°
2026-04-30 09:36 52.30641 4.77060 -2 ft 9 kts 236°
2026-04-30 09:37 52.30573 4.77062 -2 ft 12 kts 150°
2026-04-30 09:37 52.30502 4.77133 -2 ft 12 kts 148°
2026-04-30 09:37 52.30472 4.77241 -2 ft 12 kts 65°
2026-04-30 09:37 52.30515 4.77350 -2 ft 11 kts 57°
2026-04-30 09:38 52.30556 4.77455 -2 ft 11 kts 58°
2026-04-30 09:38 52.30601 4.77552 -2 ft 11 kts 40°
2026-04-30 09:38 52.30669 4.77588 -2 ft 10 kts
2026-04-30 09:38 52.30746 4.77595 -2 ft 12 kts
2026-04-30 09:39 52.30839 4.77604 -2 ft 15 kts
2026-04-30 09:39 52.30954 4.77617 -2 ft 19 kts
2026-04-30 09:39 52.31090 4.77626 -2 ft 20 kts
2026-04-30 09:39 52.31226 4.77640 -2 ft 19 kts
2026-04-30 09:40 52.31358 4.77651 -2 ft 19 kts
2026-04-30 09:40 52.31479 4.77607 -2 ft 18 kts 322°
2026-04-30 09:40 52.31575 4.77490 -2 ft 16 kts 356°
2026-04-30 09:40 52.31671 4.77550 -3 ft 15 kts 45°
2026-04-30 09:41 52.31738 4.77673 -2 ft 14 kts 29°
2026-04-30 09:41 52.31834 4.77696 -3 ft 14 kts
2026-04-30 09:41 52.31927 4.77704 -2 ft 13 kts
2026-04-30 09:41 52.32012 4.77737 -2 ft 13 kts 34°
2026-04-30 09:42 52.32073 4.77821 -2 ft 6 kts 41°
2026-04-30 09:42 52.32095 4.77853 -2 ft 4 kts 42°
2026-04-30 09:42 52.32113 4.77884 -2 ft 4 kts 58°
2026-04-30 09:42 52.32117 4.77940 -2 ft 6 kts 93°
2026-04-30 09:43 52.32095 4.78004 -2 ft 7 kts 144°
2026-04-30 09:43 52.32059 4.78011 -2 ft 1 kts 183°
2026-04-30 09:43 52.32057 4.78011 -2 ft 0 kts 183°
2026-04-30 09:44 52.32050 4.78010 -2 ft 5 kts 183°
2026-04-30 09:44 52.31843 4.77990 -3 ft 65 kts 183°
2026-04-30 09:44 52.31150 4.77925 -4 ft 132 kts 183°
2026-04-30 09:44 52.30058 4.77813 129 ft 174 kts 181°
2026-04-30 09:45 52.28856 4.77632 929 ft 171 kts 175°
2026-04-30 09:45 52.27710 4.77929 1779 ft 171 kts 156°
2026-04-30 09:45 52.26483 4.78516 2202 ft 195 kts 158°
2026-04-30 09:45 52.25151 4.79135 2831 ft 201 kts 159°
2026-04-30 09:46 52.23779 4.79765 3455 ft 207 kts 158°
2026-04-30 09:46 52.22344 4.80197 4125 ft 219 kts 177°
2026-04-30 09:46 52.20867 4.79314 4878 ft 239 kts 210°
2026-04-30 09:46 52.19772 4.77126 5416 ft 270 kts 243°
2026-04-30 09:47 52.19560 4.73948 5881 ft 295 kts 280°
2026-04-30 09:47 52.20120 4.70723 6732 ft 298 kts 286°
2026-04-30 09:47 52.20684 4.67445 7533 ft 301 kts 284°
2026-04-30 09:47 52.21188 4.64105 8277 ft 307 kts 282°
2026-04-30 09:48 52.21668 4.60676 9053 ft 311 kts 282°
2026-04-30 09:48 52.22229 4.57256 9820 ft 316 kts 295°
2026-04-30 09:48 52.23514 4.54381 10553 ft 314 kts 323°
2026-04-30 09:48 52.25311 4.52352 10971 ft 327 kts 332°
2026-04-30 09:49 52.27340 4.50397 11143 ft 350 kts 333°
2026-04-30 09:49 52.29506 4.48329 11454 ft 368 kts 333°
2026-04-30 09:49 52.31719 4.46162 12101 ft 373 kts 332°
2026-04-30 09:49 52.33942 4.43951 12855 ft 375 kts 331°
2026-04-30 09:50 52.36270 4.42068 13596 ft 372 kts 348°
2026-04-30 09:50 52.38816 4.41474 14348 ft 369 kts 358°
2026-04-30 09:50 52.41386 4.41114 14980 ft 373 kts 359°
2026-04-30 09:50 52.43988 4.40751 15589 ft 377 kts 358°
2026-04-30 09:51 52.46614 4.40369 16203 ft 381 kts 359°
2026-04-30 09:51 52.49264 4.39970 16838 ft 384 kts 358°
2026-04-30 09:51 52.51927 4.39558 17460 ft 387 kts 358°
2026-04-30 09:51 52.54621 4.39134 18065 ft 391 kts 358°
2026-04-30 09:52 52.57340 4.38703 18664 ft 394 kts 358°
2026-04-30 09:52 52.60083 4.38267 19197 ft 397 kts 358°
2026-04-30 09:52 52.62844 4.37826 19747 ft 400 kts 358°
2026-04-30 09:52 52.65620 4.37383 20292 ft 402 kts 358°
2026-04-30 09:53 52.68422 4.36937 20825 ft 404 kts 358°
2026-04-30 09:53 52.71230 4.36445 21294 ft 410 kts 353°
2026-04-30 09:53 52.73941 4.34868 21738 ft 422 kts 331°
2026-04-30 09:53 52.76221 4.31782 22290 ft 429 kts 313°
2026-04-30 09:54 52.77872 4.27662 22854 ft 432 kts 301°
2026-04-30 09:54 52.79329 4.23300 23345 ft 435 kts 300°
2026-04-30 09:54 52.80772 4.18872 23763 ft 439 kts 300°
2026-04-30 09:54 52.82225 4.14417 24188 ft 442 kts 300°
2026-04-30 09:55 52.83702 4.09928 24581 ft 444 kts 300°
2026-04-30 09:55 52.85189 4.05452 24976 ft 446 kts 300°
2026-04-30 09:55 52.86697 4.00940 25329 ft 449 kts 300°
2026-04-30 09:55 52.88210 3.96413 25754 ft 450 kts 300°
2026-04-30 09:56 52.89732 3.91870 26121 ft 452 kts 300°
2026-04-30 09:56 52.91268 3.87282 26385 ft 457 kts 300°
2026-04-30 09:56 52.92803 3.82668 26737 ft 458 kts 300°
2026-04-30 09:56 52.94333 3.78053 27249 ft 457 kts 300°
2026-04-30 09:57 52.95873 3.73416 27505 ft 461 kts 300°
2026-04-30 09:57 52.97420 3.68749 27859 ft 462 kts 300°
2026-04-30 09:57 52.98971 3.64063 28224 ft 463 kts 299°
2026-04-30 09:57 53.00529 3.59351 28564 ft 465 kts 299°
2026-04-30 09:58 53.02093 3.54619 28735 ft 471 kts 299°
2026-04-30 09:58 53.03674 3.49840 28991 ft 474 kts 299°
2026-04-30 09:58 53.05258 3.45065 29511 ft 469 kts 299°
2026-04-30 09:58 53.06800 3.40414 30181 ft 463 kts 299°
2026-04-30 09:59 53.09834 3.30876 30702 ft 469 kts 292°
2026-04-30 09:59 53.11560 3.20466 31359 ft 465 kts 281°
2026-04-30 10:00 53.12860 3.10021 32255 ft 458 kts 281°
2026-04-30 10:00 53.13517 3.04828 32408 ft 460 kts 281°
2026-04-30 10:01 53.15574 2.88994 32425 ft 469 kts 281°
2026-04-30 10:02 53.17622 2.73258 32403 ft 459 kts 281°
2026-04-30 10:02 53.18966 2.62810 32420 ft 464 kts 281°
2026-04-30 10:03 53.20320 2.52218 32427 ft 469 kts 281°
2026-04-30 10:03 53.21656 2.41633 32398 ft 462 kts 281°
2026-04-30 10:04 53.22953 2.31218 32404 ft 461 kts 280°
2026-04-30 10:04 53.24249 2.20743 32409 ft 460 kts 280°
2026-04-30 10:05 53.25534 2.10285 32400 ft 460 kts 280°
2026-04-30 10:05 53.26813 1.99799 32408 ft 460 kts 280°
2026-04-30 10:06 53.28082 1.89318 32403 ft 461 kts 280°
2026-04-30 10:06 53.29345 1.78797 32402 ft 461 kts 279°
2026-04-30 10:07 53.30599 1.68275 32400 ft 461 kts 279°
2026-04-30 10:07 53.31845 1.57743 32402 ft 461 kts 279°
2026-04-30 10:08 53.33114 1.47220 32404 ft 462 kts 281°
2026-04-30 10:08 53.34635 1.36777 32396 ft 462 kts 282°
2026-04-30 10:09 53.36205 1.26332 32394 ft 462 kts 282°
2026-04-30 10:09 53.37733 1.15870 32391 ft 462 kts 282°
2026-04-30 10:10 53.39219 1.05471 32387 ft 462 kts 282°
2026-04-30 10:10 53.40700 0.95004 32386 ft 462 kts 281°
2026-04-30 10:11 53.42173 0.84530 32379 ft 461 kts 281°
2026-04-30 10:11 53.43636 0.74064 32369 ft 461 kts 281°
2026-04-30 10:12 53.45088 0.63601 32372 ft 461 kts 281°
2026-04-30 10:12 53.46534 0.53110 32363 ft 461 kts 281°
2026-04-30 10:13 53.47971 0.42629 32361 ft 461 kts 280°
2026-04-30 10:13 53.49405 0.32118 32358 ft 462 kts 280°
2026-04-30 10:14 53.50838 0.21604 32354 ft 462 kts 280°
2026-04-30 10:14 53.52970 0.05797 32354 ft 463 kts 280°
2026-04-30 10:15 53.54365 -0.04786 32359 ft 464 kts 279°
2026-04-30 10:15 53.55752 -0.15397 32351 ft 464 kts 279°
2026-04-30 10:16 53.56901 -0.24218 32345 ft 465 kts 279°
2026-04-30 10:17 53.58961 -0.40158 32347 ft 465 kts 279°
2026-04-30 10:17 53.61005 -0.56098 32346 ft 464 kts 279°
2026-04-30 10:18 53.62347 -0.66663 32344 ft 464 kts 279°
2026-04-30 10:19 53.64355 -0.82617 32341 ft 463 kts 279°
2026-04-30 10:19 53.65679 -0.93237 32328 ft 463 kts 279°
2026-04-30 10:20 53.66995 -1.03852 32327 ft 462 kts 278°
2026-04-30 10:20 53.68947 -1.19729 32018 ft 455 kts 278°
2026-04-30 10:21 53.69582 -1.24922 31699 ft 447 kts 278°
2026-04-30 10:21 53.70204 -1.30042 31260 ft 444 kts 278°
2026-04-30 10:21 53.70820 -1.35132 30860 ft 440 kts 278°
2026-04-30 10:21 53.71661 -1.40019 30425 ft 442 kts 294°
2026-04-30 10:22 53.73381 -1.44305 30015 ft 442 kts 311°
2026-04-30 10:22 53.75734 -1.47600 29575 ft 438 kts 328°
2026-04-30 10:22 53.78333 -1.50242 29171 ft 434 kts 329°
2026-04-30 10:22 53.80933 -1.52806 28734 ft 431 kts 330°
2026-04-30 10:23 53.83513 -1.55356 28319 ft 427 kts 329°
2026-04-30 10:23 53.86063 -1.57912 27911 ft 424 kts 329°
2026-04-30 10:23 53.88586 -1.60475 27489 ft 421 kts 329°
2026-04-30 10:23 53.91082 -1.63032 27077 ft 418 kts 329°
2026-04-30 10:24 53.93564 -1.65590 26677 ft 416 kts 329°
2026-04-30 10:24 53.96027 -1.68132 26276 ft 413 kts 329°
2026-04-30 10:24 53.98478 -1.70662 25875 ft 411 kts 329°
2026-04-30 10:24 54.00913 -1.73180 25485 ft 409 kts 329°
2026-04-30 10:25 54.03344 -1.75694 24968 ft 411 kts 329°
2026-04-30 10:25 54.05797 -1.78230 24359 ft 415 kts 329°
2026-04-30 10:25 54.08283 -1.80801 23677 ft 420 kts 329°
2026-04-30 10:25 54.10792 -1.83401 22966 ft 423 kts 329°
2026-04-30 10:26 54.13463 -1.85499 22271 ft 424 kts 347°
2026-04-30 10:26 54.16359 -1.86054 21693 ft 419 kts
2026-04-30 10:26 54.19232 -1.85330 21081 ft 417 kts 13°
2026-04-30 10:26 54.22076 -1.84375 20443 ft 418 kts 14°
2026-04-30 10:27 54.24939 -1.83400 19814 ft 419 kts 13°
2026-04-30 10:27 54.27797 -1.82450 19187 ft 420 kts 13°
2026-04-30 10:27 54.30632 -1.81534 18558 ft 420 kts 13°
2026-04-30 10:27 54.33514 -1.80622 17837 ft 421 kts 13°
2026-04-30 10:28 54.36390 -1.79717 17182 ft 420 kts 13°
2026-04-30 10:28 54.39261 -1.78813 16540 ft 419 kts 13°
2026-04-30 10:28 54.42144 -1.77903 15764 ft 421 kts 13°
2026-04-30 10:28 54.45031 -1.76989 14912 ft 425 kts 13°
2026-04-30 10:29 54.47953 -1.76062 14046 ft 429 kts 13°
2026-04-30 10:29 54.50887 -1.75132 13410 ft 425 kts 13°
2026-04-30 10:29 54.53734 -1.74233 13307 ft 405 kts 13°
2026-04-30 10:29 54.56423 -1.73383 13128 ft 382 kts 13°
2026-04-30 10:30 54.58958 -1.72577 12981 ft 361 kts 14°
2026-04-30 10:30 54.61363 -1.71809 12826 ft 342 kts 14°
2026-04-30 10:30 54.63644 -1.71080 12721 ft 325 kts 14°
2026-04-30 10:30 54.65815 -1.70386 12617 ft 309 kts 14°
2026-04-30 10:31 54.67912 -1.69714 12144 ft 308 kts 14°
2026-04-30 10:31 54.70068 -1.69547 11493 ft 318 kts 349°
2026-04-30 10:31 54.72145 -1.70890 11017 ft 319 kts 334°
2026-04-30 10:31 54.74108 -1.72651 10579 ft 317 kts 332°
2026-04-30 10:32 54.76038 -1.74450 10111 ft 315 kts 331°
2026-04-30 10:32 54.77967 -1.76248 9634 ft 313 kts 332°
2026-04-30 10:32 54.79884 -1.78024 9158 ft 311 kts 332°
2026-04-30 10:32 54.81787 -1.79775 8722 ft 308 kts 332°
2026-04-30 10:33 54.83653 -1.81481 8300 ft 306 kts 333°
2026-04-30 10:33 54.85535 -1.83199 7898 ft 304 kts 333°
2026-04-30 10:33 54.87406 -1.84905 7455 ft 302 kts 332°
2026-04-30 10:33 54.89113 -1.86990 6987 ft 301 kts 313°
2026-04-30 10:34 54.90312 -1.89921 6567 ft 295 kts 290°
2026-04-30 10:34 54.90847 -1.93276 6103 ft 284 kts 269°
2026-04-30 10:34 54.90685 -1.96614 5654 ft 273 kts 250°
2026-04-30 10:34 54.90197 -1.99777 5229 ft 270 kts 247°
2026-04-30 10:35 54.89774 -2.02957 4741 ft 274 kts 260°
2026-04-30 10:35 54.89988 -2.06227 4484 ft 273 kts 284°
2026-04-30 10:35 54.91012 -2.08953 4205 ft 272 kts 322°
2026-04-30 10:35 54.92711 -2.10118 4275 ft 261 kts
2026-04-30 10:36 54.94439 -2.09430 4260 ft 254 kts 39°
2026-04-30 10:36 54.95545 -2.07226 4267 ft 240 kts 77°
2026-04-30 10:36 54.95717 -2.04446 4275 ft 228 kts 97°
2026-04-30 10:36 54.95855 -2.01637 4072 ft 238 kts 86°
2026-04-30 10:37 54.96226 -1.98818 3796 ft 239 kts 80°
2026-04-30 10:37 54.96734 -1.96048 3478 ft 243 kts 77°
2026-04-30 10:37 54.97372 -1.93296 3162 ft 248 kts 72°
2026-04-30 10:37 54.98096 -1.90551 2830 ft 249 kts 71°
2026-04-30 10:38 54.98812 -1.87860 2456 ft 237 kts 70°
2026-04-30 10:38 54.99472 -1.85362 2155 ft 220 kts 71°
2026-04-30 10:38 55.00085 -1.83020 1861 ft 207 kts 70°
2026-04-30 10:38 55.00667 -1.80815 1603 ft 193 kts 70°
2026-04-30 10:39 55.01207 -1.78761 1331 ft 179 kts 69°
2026-04-30 10:39 55.01707 -1.76868 1115 ft 163 kts 70°
2026-04-30 10:39 55.02160 -1.75153 855 ft 147 kts 67°
2026-04-30 10:39 55.02573 -1.73589 690 ft 146 kts 67°
2026-04-30 10:40 55.02999 -1.71979 468 ft 142 kts 69°
2026-04-30 10:40 55.03401 -1.70462 290 ft 132 kts 68°
2026-04-30 10:40 55.03751 -1.69141 253 ft 105 kts 65°
2026-04-30 10:40 55.03992 -1.68224 247 ft 62 kts 65°
2026-04-30 10:41 55.04119 -1.67746 246 ft 35 kts 65°
2026-04-30 10:41 55.04202 -1.67440 242 ft 17 kts 65°
2026-04-30 10:41 55.04295 -1.67375 240 ft 17 kts 334°
2026-04-30 10:41 55.04332 -1.67550 242 ft 16 kts 273°
2026-04-30 10:42 55.04306 -1.67730 244 ft 15 kts 244°
2026-04-30 10:42 55.04260 -1.67902 246 ft 18 kts 245°
2026-04-30 10:42 55.04199 -1.68129 246 ft 23 kts 245°
2026-04-30 10:42 55.04126 -1.68406 247 ft 26 kts 245°
2026-04-30 10:43 55.04054 -1.68679 248 ft 24 kts 245°
2026-04-30 10:43 55.03986 -1.68935 250 ft 23 kts 245°
2026-04-30 10:43 55.03921 -1.69182 252 ft 22 kts 245°
2026-04-30 10:43 55.03857 -1.69422 254 ft 21 kts 245°
2026-04-30 10:44 55.03805 -1.69662 257 ft 21 kts 255°
2026-04-30 10:44 55.03779 -1.69904 259 ft 20 kts 264°
2026-04-30 10:44 55.03774 -1.70145 262 ft 20 kts 273°
2026-04-30 10:44 55.03784 -1.70378 266 ft 19 kts 281°
2026-04-30 10:45 55.03802 -1.70585 266 ft 14 kts 274°
2026-04-30 10:45 55.03798 -1.70665 266 ft 5 kts 217°
2026-04-30 10:45 55.03765 -1.70667 266 ft 5 kts 184°
2026-04-30 10:45 55.03733 -1.70671 266 ft 4 kts 184°
2026-04-30 10:46 55.03729 -1.70671 266 ft 0 kts 184°